Location: Malvern Link
(52.1333°N, 2.3000°W)
Time: 10:07:26
(UTC+00:00)

AO-92 - Pass Details

Date: 02 July 2022
Orbit: 470 x 481 km, 97.4° (Epoch: 07 August)

Event Time Altitude Azimuth Distance (km) Brightness Sun altitude
Exits shadow 22:25:04 13° 188° (S) 1,481 ? -11.2°
Maximum altitude 22:28:05 46° 261° (W) 654 ? -11.4°
Drops below altitude 10° 22:31:34 10° 336° (NNW) 1,674 ? -11.7°
Sets 22:33:42 0° 342° (NNW) 2,561 ? -11.8°
